Tracking 26321 objects as of 27-Nov-2022
HD Live streaming from Space Station
objects crossing your sky now

STARLINK-4646

Track STARLINK-4646 now!
10-day predictions
STARLINK-4646 is classified as:


NORAD ID: 53737
Int'l Code: 2022-107AP
Perigee: 545.9 km
Apogee: 547.9 km
Inclination: 53.2 °
Period: 95.4 minutes
Semi major axis: 6917 km
RCS: Unknown
Launch date: September 5, 2022
Source: United States (US)
Launch site: AIR FORCE EASTERN TEST RANGE (AFETR)
aabbcc
Your satellite tracking list
Your tracking list is empty




NASA's NSSDC Master Catalog

Two Line Element Set (TLE):
1 53737U 22107AP  22331.25001157  .00000706  00000-0  62448-4 0  9990
2 53737  53.2159 243.9657 0001473  74.2160 220.7002 15.08826753 12880
Source of the keplerian elements: AFSPC